Theta_e
294 289 286 290 291 291 289 288 287 290 295 291 292 291 294 296 296 293 292 292 293 292 294 294 294 293 293 293 294 294 295 297 300 304 305 307 308 309 313 316 316 316 316 315
290 287 293 294 294 293 290 288 287 291 294 291 291 290 293 296 295 293 292 291 292 292 292 293 292 292 292 292 292 293 293 294 296 299 301 302 300 301 306 307 311 312 312 312
289 293 296 294 292 291 289 288 287 288 291 290 288 287 291 294 293 293 293 293 292 291 290 290 290 290 290 290 290 292 293 293 293 294 296 297 298 298 298 302 303 303 307 308
290 295 294 292 291 292 287 292 291 290 286 283 289 280 287 291 290 290 290 289 290 290 290 290 289 289 289 289 289 291 292 293 293 293 292 291 291 290 292 294 294 295 298 303
291 290 289 289 291 293 290 291 288 287 285 284 284 281 285 289 287 288 288 289 289 289 289 289 289 290 290 289 288 288 291 291 292 292 291 291 289 289 289 290 290 291 293 295
291 291 291 292 292 292 292 289 288 287 285 278 284 284 283 285 288 287 288 289 289 289 289 289 290 290 289 288 287 287 288 289 290 290 289 289 289 289 289 289 289 289 290 291
290 290 291 292 288 290 289 286 281 278 276 278 285 282 286 288 289 289 288 287 288 288 287 287 287 287 287 286 286 287 286 286 287 287 287 287 287 287 287 287 287 287 288 288
286 284 290 292 291 289 287 289 283 277 275 277 284 280 286 287 288 288 288 287 288 288 288 287 287 286 286 286 285 285 285 285 285 285 285 285 285 285 285 285 285 286 286 287
288 287 291 292 292 294 288 285 289 282 275 276 282 285 287 288 286 286 286 286 285 286 286 287 286 286 286 285 284 284 284 283 284 284 284 284 284 283 282 282 283 283 284 286
290 284 292 290 291 291 290 293 283 283 272 270 278 280 282 285 284 285 284 283 284 285 285 284 285 285 285 285 284 284 284 283 283 283 284 284 284 284 282 281 281 281 282 283
291 289 287 289 287 287 287 285 287 287 282 274 271 278 286 287 286 284 284 284 283 283 283 285 283 284 284 283 282 282 283 283 282 282 282 283 282 283 282 281 281 281 281 281
291 288 279 285 290 291 289 287 287 282 278 279 282 280 287 285 285 285 283 284 284 283 282 284 283 283 283 282 282 281 281 282 282 282 281 281 282 282 281 281 280 280 279 280
293 284 275 278 282 288 285 286 286 287 284 281 278 279 286 284 284 285 284 284 285 285 282 282 281 280 280 280 280 280 280 281 281 281 280 280 280 279 279 279 280 280 280 279
296 288 280 277 277 283 281 282 284 284 279 277 278 280 285 285 285 285 286 286 283 283 282 280 280 280 280 280 279 280 280 280 280 279 279 278 278 278 278 279 278 279 279 278
290 279 283 283 284 283 282 281 282 280 281 277 280 279 283 284 279 280 281 284 283 282 281 280 280 280 279 280 281 281 280 280 280 279 279 278 278 279 279 278 279 278 278 278
288 276 279 273 281 281 278 280 280 280 280 279 280 278 284 279 280 279 281 281 279 280 280 280 280 280 280 280 280 281 280 280 280 278 278 278 278 279 279 278 278 278 278 277
281 276 270 269 278 275 268 276 277 278 279 278 274 278 276 277 279 277 277 278 278 278 279 278 279 280 280 280 281 280 279 278 276 275 274 275 276 276 276 277 276 275 275 275
279 274 268 264 264 259 274 278 279 277 278 276 276 272 275 277 277 278 278 278 278 279 279 280 279 279 280 280 279 278 278 276 276 274 273 273 274 273 273 273 272 272 272 272
283 277 265 263 257 269 274 277 276 275 272 276 274 275 276 277 275 274 278 279 278 279 280 280 279 279 278 277 276 276 275 275 275 274 274 273 271 269 269 268 268 268 268 268
279 280 273 262 264 259 271 277 278 277 268 272 270 272 273 275 269 271 278 280 280 280 280 279 278 278 276 274 274 274 273 271 271 272 271 270 269 266 266 266 265 265 265 265
262 262 271 271 268 267 273 275 278 264 268 271 273 274 275 273 274 277 279 279 280 279 279 278 276 274 273 273 272 271 270 268 269 269 268 266 266 264 264 263 264 263 262 263
268 264 260 258 255 261 276 274 271 274 278 277 277 277 277 278 278 278 279 279 279 278 276 276 274 273 272 271 269 268 267 269 266 265 263 263 261 261 263 261 261 261 260 260
267 271 265 268 267 276 277 276 279 279 276 279 278 279 278 278 277 278 278 278 278 277 275 273 270 270 270 267 267 265 266 265 264 259 258 258 260 261 261 259 259 259 259 259
272 274 271 270 274 275 277 278 279 279 279 279 279 279 279 277 278 277 277 277 275 272 271 269 266 264 264 265 266 263 263 263 255 254 258 260 260 260 259 260 260 259 258 258
273 274 270 271 276 276 277 278 279 279 279 278 278 278 278 277 277 277 276 274 273 271 269 267 265 264 263 264 262 259 261 258 257 258 260 260 260 259 259 260 259 260 261 262
277 275 273 271 278 277 277 279 279 279 279 279 278 277 277 277 277 275 272 271 270 268 266 264 263 262 261 258 258 257 255 254 254 258 259 259 259 259 259 259 259 264 266 268
Wind_Speed
2 5 7 12 11 4 2 3 4 6 10 2 8 6 9 11 13 8 8 10 11 13 10 13 13 11 12 14 15 15 15 14 10 7 5 5 4 4 5 4 4 5 4 6
4 5 13 7 5 7 6 5 6 6 5 1 7 9 9 13 6 9 13 9 10 9 11 11 11 11 13 13 13 14 14 14 11 8 4 4 2 3 3 5 7 6 2 1
9 9 5 6 6 7 4 6 5 8 5 3 3 7 8 4 12 13 9 11 11 11 11 8 10 9 9 12 10 11 12 12 12 10 7 6 5 4 6 6 6 7 7 5
7 10 6 6 7 6 4 5 5 5 2 4 3 8 6 5 7 5 7 8 8 10 9 7 7 8 8 8 8 8 11 13 12 12 9 10 6 5 4 4 4 7 8 6
6 4 4 5 7 9 9 3 2 2 2 3 3 0 9 9 4 6 6 7 7 8 8 8 7 7 7 7 7 7 9 13 12 14 12 9 10 5 4 6 9 9 9 10
6 2 3 6 1 2 5 2 3 4 3 2 8 7 6 5 8 7 6 8 9 7 7 7 7 7 7 7 7 7 9 11 11 12 13 13 13 11 11 10 9 8 6 6
3 5 3 3 2 4 3 5 2 2 0 8 5 2 9 5 5 9 12 9 8 6 7 7 7 7 7 7 8 7 9 12 11 12 12 11 10 9 10 8 7 8 7 6
5 5 8 5 7 7 6 7 5 5 3 5 5 6 5 4 11 14 9 8 8 7 6 6 6 6 6 8 8 8 8 10 8 8 9 9 9 7 6 7 6 6 6 6
5 6 2 2 2 6 4 5 2 3 1 3 4 5 2 5 7 9 9 7 6 6 6 6 6 6 6 5 5 6 7 6 6 6 6 7 7 8 7 8 5 4 5 7
2 2 3 1 3 2 2 5 3 2 2 4 5 5 6 5 7 7 8 8 6 5 6 6 5 6 4 4 4 5 6 6 5 6 6 5 6 6 5 4 6 6 5 6
3 4 4 5 5 7 2 2 3 4 5 5 2 7 3 6 8 10 7 7 8 7 7 6 6 6 6 5 5 5 5 5 5 5 5 6 5 5 5 4 4 5 6 6
1 4 5 9 4 5 5 5 5 4 6 3 4 9 4 8 8 10 9 9 10 9 9 7 6 5 5 6 5 4 4 3 2 2 4 4 4 6 6 6 7 7 7 6
6 1 3 10 3 3 2 3 4 3 3 9 8 9 3 6 7 9 10 10 11 9 8 7 7 6 6 6 5 4 4 4 2 3 3 4 4 5 6 7 7 7 7 7
6 4 7 9 5 3 3 6 3 4 4 4 10 12 17 9 5 7 9 9 9 9 9 7 6 6 5 4 5 6 4 3 2 1 1 2 3 4 5 6 6 6 7 7
5 5 4 4 4 2 3 7 11 5 11 9 20 15 18 12 2 2 1 2 7 7 8 8 7 6 5 4 3 4 2 0 1 3 4 5 5 7 6 8 8 9 7 10
1 2 3 4 3 4 7 14 11 14 16 15 18 22 18 3 3 2 2 4 5 5 7 8 8 8 8 8 7 5 3 2 1 2 4 6 7 9 10 11 12 12 13 13
4 5 4 7 2 2 8 18 17 12 13 7 11 12 3 4 4 4 3 2 1 3 3 7 8 9 8 7 5 4 2 2 2 2 3 5 6 8 9 9 10 13 15 15
7 6 4 5 5 2 9 4 6 8 7 6 1 4 7 6 5 4 5 5 6 5 6 7 6 5 5 4 2 4 4 3 4 4 5 5 5 5 6 11 13 15 15 16
7 6 1 5 6 6 14 6 6 5 7 6 5 4 6 4 2 3 2 1 3 4 5 5 3 5 5 5 5 5 3 3 3 5 5 4 5 7 11 13 14 14 14 15
8 8 8 3 6 11 7 3 4 5 10 8 5 6 6 4 1 5 5 5 7 7 5 6 6 5 7 4 5 4 2 1 4 3 5 7 7 7 11 13 14 14 13 16
3 2 16 14 9 7 6 6 5 5 10 3 6 6 6 5 7 7 4 7 6 5 5 6 6 6 6 4 3 2 0 2 1 3 5 5 7 10 11 13 12 13 14 16
8 7 5 2 2 8 8 2 8 9 2 6 7 8 7 8 8 7 8 7 7 7 6 5 5 4 4 4 4 2 3 3 3 3 5 7 7 8 9 11 12 12 13 15
3 9 8 11 9 5 7 7 7 6 6 6 8 10 10 8 6 8 7 7 7 7 5 3 4 3 2 3 3 2 4 5 5 3 6 7 7 8 8 10 11 10 12 12
6 4 5 5 5 8 10 8 8 8 9 9 9 10 7 9 9 8 7 6 7 6 5 4 3 3 1 1 1 3 5 5 4 5 7 7 8 9 8 7 9 9 11 11
8 6 4 5 11 9 11 11 14 9 10 8 8 9 10 8 9 9 6 6 5 5 4 3 3 1 2 1 2 4 4 4 6 6 8 9 7 9 10 8 10 10 12 14
9 15 10 13 15 9 11 11 6 8 11 10 8 6 6 7 9 6 5 4 4 4 3 2 1 1 2 1 3 4 5 4 4 8 7 8 9 9 9 10 11 20 25 28
Wind_Direction
211 111 199 217 209 214 270 265 273 271 275 296 264 229 252 259 286 101 99 98 86 71 62 48 35 22 23 22 18 17 24 17 24 18 10 21 32 353 25 22 55 126 162 166
52 215 223 221 224 216 231 235 259 272 266 200 281 285 263 256 278 148 137 116 104 90 64 48 35 28 25 27 25 23 24 27 28 26 6 44 36 24 26 18 31 28 66 195
170 218 188 191 254 262 220 218 235 227 313 288 343 306 264 13 83 91 85 100 94 97 87 62 52 36 26 28 16 28 28 33 32 32 37 25 19 19 16 16 17 12 16 5
222 238 252 269 224 190 267 213 234 242 116 232 78 285 256 200 120 91 103 98 98 93 80 76 57 45 37 29 14 25 36 40 39 34 45 55 56 35 350 4 5 3 359 0
242 161 190 201 216 159 223 132 164 228 237 34 280 261 266 111 168 153 127 107 98 100 102 93 74 56 38 30 25 8 40 46 41 45 48 47 46 40 9 13 15 12 13 14
245 220 197 212 77 144 142 79 10 61 100 318 237 166 276 187 186 148 141 124 116 108 95 83 74 59 45 27 30 26 35 40 39 45 47 53 51 39 32 18 17 3 359 5
253 217 220 175 154 15 92 82 294 3 99 221 184 167 237 3 80 142 133 118 113 105 97 90 77 61 45 33 23 37 38 42 34 39 41 44 49 48 47 34 20 8 1 3
173 291 177 187 176 188 167 183 172 230 226 256 347 267 274 77 86 103 106 125 119 109 106 102 92 83 65 47 38 29 32 42 30 39 38 40 41 47 47 36 22 13 6 350
195 242 5 148 129 141 199 197 165 115 60 54 226 285 96 84 100 123 126 106 121 129 113 104 87 78 76 75 74 76 57 45 41 43 41 40 42 44 33 19 19 358 343 353
182 285 263 127 79 341 178 155 90 25 187 238 275 254 235 189 176 152 147 151 158 124 111 117 120 127 125 113 103 85 71 58 42 42 41 35 31 39 37 23 11 354 328 339
139 142 257 135 189 173 150 229 217 174 166 197 213 253 147 145 173 170 157 160 152 152 161 165 155 153 154 133 112 109 86 60 40 35 35 29 18 8 9 7 344 333 327 334
179 156 216 224 265 157 192 227 197 213 255 249 242 251 107 121 122 130 159 175 184 180 179 173 171 151 143 134 126 96 120 131 122 74 54 27 7 358 344 339 331 335 329 323
174 222 347 329 29 28 164 132 98 2 80 236 253 256 175 123 142 183 186 205 199 180 166 154 139 155 149 144 137 117 121 167 131 85 55 12 349 333 320 318 318 314 308 305
132 157 177 224 190 98 291 298 269 189 240 266 254 286 287 282 203 232 239 225 194 174 170 165 171 170 169 175 178 182 182 141 125 134 161 255 270 276 288 289 284 285 283 283
146 202 182 260 298 80 236 261 274 220 247 226 266 270 269 292 290 276 58 94 161 166 174 188 190 194 196 194 227 229 227 350 9 334 332 329 334 328 317 317 315 309 302 306
74 253 117 283 238 277 282 267 262 252 255 254 257 263 277 187 189 181 167 175 167 167 202 197 189 191 194 203 209 214 204 244 70 330 312 325 334 323 317 315 314 310 307 305
138 130 84 259 171 47 312 246 252 244 248 238 257 257 170 217 219 166 204 179 188 201 167 195 207 202 196 199 181 176 172 98 70 342 314 329 312 302 302 306 309 308 305 303
154 122 118 229 46 262 249 288 215 217 236 220 153 226 203 198 175 198 247 241 246 233 229 232 224 197 161 155 130 109 79 51 16 338 310 304 303 307 318 314 307 303 301 299
173 139 174 167 202 297 294 254 200 195 272 193 203 207 186 164 89 296 280 87 204 231 242 233 203 152 139 107 91 83 54 13 339 305 304 333 349 323 311 302 299 299 298 296
175 193 169 150 200 208 237 165 132 110 272 224 173 189 168 123 134 248 262 259 265 254 241 166 145 122 116 97 96 111 163 241 267 299 331 318 313 296 296 296 297 295 288 287
99 52 212 220 229 275 235 205 139 103 259 207 175 180 169 183 199 227 240 259 252 252 198 133 122 123 118 115 99 86 111 265 288 317 302 292 289 291 288 287 290 292 290 289
159 170 200 94 88 270 185 84 158 215 203 180 189 196 210 228 243 242 256 252 247 184 144 133 129 116 99 83 69 18 297 323 301 284 280 278 271 274 288 287 290 289 290 289
258 194 183 181 204 206 187 194 222 178 172 206 200 222 215 238 255 249 247 255 195 179 152 123 131 118 83 82 93 309 307 316 308 277 268 266 268 278 282 287 290 296 291 290
272 148 220 73 228 218 217 233 230 208 215 228 217 227 216 226 238 239 238 201 180 172 164 141 108 92 102 156 50 260 305 314 297 278 294 300 302 298 286 283 291 290 287 288
208 164 184 251 255 267 268 246 249 225 231 234 232 213 220 220 239 230 227 194 177 162 145 126 128 181 201 155 253 270 297 289 301 300 308 305 299 301 296 290 293 283 281 284
214 235 237 245 247 223 245 255 227 215 235 232 230 239 233 207 225 184 192 159 150 148 116 98 120 298 284 290 269 272 277 270 286 309 312 307 306 302 299 302 295 290 296 300